千帆星座-51 (QIANFAN-51)

导读

QIANFAN-51 是中国北斗卫星导航系统的一部分,属于北斗三号系统的地球静止轨道卫星。该卫星由中国自主研发,主要用于提供高精度定位、导航和授时服务,增强区域及全球导航能力。QIANFAN-51 的发射进一步提升了北斗系统的稳定性和覆盖范围,支持交通运输、通信、气象、农业等多个领域的广泛应用。其先进技术和高可靠性,标志着中国在卫星导航领域的持续发展和国际竞争力的提升。

Basic Information
目录编号:
62252
目录名称:
QIANFAN-51
国际标识:
2024-232R
轨道中心:
EARTH
卫星名称:
千帆星座-51
卫星全名:
千帆星座-51 (QIANFAN-51)
卫星状态:
在轨 (已飞行554 天)
发射日期:
2024-12-05 UTC
国别 :
中国 (CN)
星等 :
--
Orbit Information
数据来源 国际轨道数据 AOE轨道数据
星历时间 2026-06-12T13:30:34+0800
16小时前
查看轨道信息
2026-06-11T06:00:00+0800
1天前
查看轨道信息
半长轴 7446.702km 7446.705km
偏心率 0.0014778 0.0014775
轨道倾角 89.008° 89.009°
近地点辐角 41.794° 45.263°
升交点赤经 23.001° 23.133°
平近点角 318.434° 53.348°
近地点 1057.56km 1057.565km
远地点 1079.57km 1079.571km
周期 106.587分钟 106.587分钟
每日圈数 13.510046 13.510038
Detailed Information
卫星平台:
51
覆盖范围:
全球
运营商:
上海垣信卫星科技有限公司
运营商所在国:
中国
使用方式:
暂无
Satellite Introduction
千帆星座,也被称为“G60星链”计划,是中国版“星链”的重要组成部分,旨在打造一个由1.4万多颗低轨宽频多媒体卫星构成的庞大星座。千帆星座计划由上海垣信卫星科技有限公司负责实施,于2023年启动建设。该项目是我国第二个低轨卫星大星座,旨在通过构建庞大的卫星网络,为全球用户提供高质量的通信和宽带互联网服务。
2D Orbit Map
3D Orbit Map
Orbit Altitude Analysis Chart
Orbit Inclination Analysis Chart
Orbit Comprehensive Analysis Chart
View Comprehensive Chart